Flag for U.S.A. Weather past 2 weeks in Bridgeport, Connecticut, U.S.A.

Now
38 °F

Sunny.


Feels Like: 31 °F
Forecast: 27 / 42 °F
Wind: 9 mph from Northwest

Location: Sikorsky Memorial Airport

Current Time: Mar 29, 2015 at 12:57:53 PM

Latest Report: Mar 29, 2015 at 11:52 AM


Visibility: 10 mi

Pressure: 30.24 "Hg

Humidity: 29%

Dew point: 8 °F

Location of BridgeportLocation

Historic Weather in Bridgeport — Graph

°F

Bridgeport temperature yesterday

Maximum temperature yesterday: 40 °F (at 12:52 AM)
Minimum temperature yesterday: 28 °F (at 11:52 PM)
Average temperature yesterday: 33 °F

Past Weeks' High & Low Weather Summary

 TemperatureHumidityPressure
High53 °F (Mar 17, 12:52 PM)100% (Mar 14, 10:52 AM)30.43 "Hg (Mar 14, 10:52 AM)
Low21 °F (Mar 23, 3:52 AM)19% (Mar 19, 5:52 PM)29.51 "Hg (Mar 17, 1:52 PM)
Average35 °F63%30.01 "Hg
* Reported Mar 14 10:52 AM — Mar 29 10:52 AM, Bridgeport, Weather by CustomWeather, © 2015

Note: Actual official high and low records may vary slightly from our data, if they occured in-between our weather recording intervals... More about our weather records

Advertising

Bridgeport weather history for previous 24 hours

 ConditionsComfort  
Time TempWeatherWind HumidityBarometerVisibility
10:52 AM
Sun, Mar 29
36 °FSunny.10 mph31%30.25 "Hg10 mi
9:52 AM33 °FSunny.7 mph35%30.26 "Hg10 mi
8:52 AM29 °FScattered clouds.9 mph41%30.25 "Hg10 mi
7:52 AM26 °FOvercast.9 mph46%30.23 "Hg10 mi
6:52 AM26 °FOvercast.8 mph46%30.19 "Hg10 mi
5:52 AM26 °FMostly cloudy.7 mph50%30.17 "Hg10 mi
4:52 AM27 °FMostly cloudy.9 mph53%30.14 "Hg10 mi
3:52 AM27 °FOvercast.10 mph61%30.12 "Hg10 mi
2:52 AM27 °FOvercast.12 mph63%30.11 "Hg10 mi
1:52 AM28 °FOvercast.8 mph64%30.10 "Hg10 mi
12:52 AM28 °FOvercast.12 mph72%30.10 "Hg9 mi
11:52 PM
Sat, Mar 28
28 °FOvercast.12 mph78%30.08 "Hg9 mi
11:03 PM29 °FLight snow. Mostly cloudy.14 mph82%30.07 "Hg3 mi
10:59 PM29 °FLight snow. Mostly cloudy.13 mph82%30.06 "Hg2 mi
9:52 PM30 °FLight snow. Overcast.8 mph82%30.03 "Hg5 mi
8:52 PM30 °FLight snow. Ice fog.13 mph85%30.00 "Hg4 mi
7:52 PM31 °FLight snow. Overcast.13 mph79%29.97 "Hg3 mi
6:52 PM31 °FOvercast.17 mph79%29.92 "Hg10 mi
5:52 PM32 °FLight snow. Mostly cloudy.15 mph75%29.88 "Hg4 mi
5:01 PM32 °FLight snow. Mostly cloudy.18 mph79%29.86 "Hg3 mi
3:52 PM33 °FLight snow. More clouds than sun.17 mph78%29.83 "Hg4 mi
3:01 PM33 °FLight snow. Mostly cloudy.14 mph82%29.81 "Hg1 mi
1:52 PM32 °FLight snow. Cloudy.18 mph82%29.80 "Hg2 mi
12:52 PM33 °FLight snow. Cloudy.18 mph82%29.79 "Hg2 mi
Weather by CustomWeather, © 2015

See weather overviewHow to use our weather pages